Vorticity
7 10 10 9 9 7 6 5 4 4 4 5 7 7 9 9 8 7 6 4 2 3 5 5 7 6 3 3 4 5 4 5 6 8 7 6 12 10 14 16 9 9 7 3 1 2 2 0 0 1 2 2 4 4 5 4 5 4 3 4 2 3 2 3 3 3 5 5 6 6 6 6 6 6 6 5 5 5 5 5 4 4 4 4 3 3 3 2 3 3 3 3 3 4 4 4 4
9 9 12 10 9 8 7 6 4 4 4 6 6 5 9 11 11 9 7 4 2 4 5 5 7 5 3 5 6 6 7 7 7 8 6 10 13 9 13 18 13 7 6 5 -0 -1 0 -1 -2 -1 1 3 5 5 6 5 4 4 3 3 3 2 2 3 3 3 4 5 6 6 6 6 7 7 7 7 7 7 6 6 6 5 5 5 4 4 3 3 3 3 3 3 3 3 3 3 3
17 10 10 12 10 8 9 6 5 4 5 6 6 7 7 10 12 10 8 5 3 5 7 8 5 2 4 8 9 6 7 8 9 9 9 11 7 3 4 7 11 9 7 7 4 4 5 5 5 4 5 6 6 7 6 6 5 4 4 3 3 3 3 3 3 4 3 4 4 4 5 5 6 6 6 7 7 8 7 8 8 8 7 6 6 5 5 4 4 4 4 3 3 3 3 3 3
24 22 15 13 12 8 9 6 5 4 5 7 6 8 8 9 12 11 9 6 3 7 10 8 2 1 5 7 7 7 8 9 11 12 14 16 10 5 2 -2 3 8 9 9 11 10 8 7 8 8 8 7 6 6 4 4 5 5 5 4 5 4 4 4 4 4 4 4 4 4 4 4 4 4 4 5 5 6 6 7 7 8 8 7 7 7 7 6 6 5 5 5 5 5 5 5 4
11 23 24 18 15 9 9 7 6 4 5 7 5 7 9 12 12 9 9 5 5 12 10 3 0 1 4 5 5 4 8 9 10 13 13 18 19 17 14 9 7 8 11 12 14 13 12 9 7 7 7 8 6 3 2 2 3 5 6 5 5 5 5 5 5 4 4 4 4 4 4 3 3 2 2 3 4 4 4 4 4 5 6 6 6 7 7 7 7 6 6 5 5 5 5 5 5
3 11 20 23 23 13 8 8 6 6 6 5 5 6 8 11 10 9 9 5 5 10 4 -3 -3 -0 4 4 5 5 8 10 9 13 12 10 8 6 6 8 9 9 11 9 9 9 9 10 10 11 9 10 9 4 2 2 3 4 6 6 5 6 5 5 6 5 4 3 3 4 4 4 3 2 2 1 2 3 3 3 3 4 4 5 5 5 5 6 6 6 6 5 5 5 5 4 4
14 10 12 17 28 24 11 9 8 7 8 6 6 8 10 9 5 4 7 9 9 8 2 -2 -3 1 9 7 6 7 7 9 11 13 16 17 15 9 4 6 10 11 12 6 1 -1 -4 -4 3 12 11 6 6 3 1 2 4 5 6 6 6 7 7 6 5 4 3 3 3 3 3 4 4 4 4 3 2 2 3 3 4 4 4 5 5 5 4 5 5 6 6 6 6 5 5 5 5
11 11 14 11 16 22 14 10 8 8 9 8 9 9 12 10 4 2 2 8 7 5 6 7 8 9 13 10 6 7 6 8 9 7 7 16 23 23 18 13 13 12 11 11 8 6 5 1 -2 5 10 4 0 -0 -1 0 2 5 6 6 6 6 7 6 5 3 2 1 0 1 2 3 4 6 6 5 4 4 4 4 5 5 5 5 5 5 4 5 5 5 6 6 6 6 6 6 6
7 6 17 16 11 14 13 13 8 6 8 8 9 8 7 6 6 6 2 3 1 3 9 9 8 12 11 6 3 4 6 8 7 4 1 5 11 14 15 12 12 10 7 9 10 11 11 11 10 11 14 8 1 -0 -0 1 3 6 7 7 7 7 7 6 4 3 2 0 -1 -1 -1 0 1 3 5 6 6 5 5 5 4 4 5 4 5 5 5 5 5 5 5 6 6 6 6 6 7
20 6 12 17 13 11 6 13 15 6 8 10 9 7 4 3 6 10 7 6 6 1 2 4 3 8 9 3 3 4 6 7 3 1 -1 1 3 4 7 6 8 11 10 13 17 21 18 15 18 17 13 6 -1 0 1 2 5 8 8 8 8 8 8 7 5 3 1 -1 -3 -2 -3 -2 -1 1 3 4 5 4 3 3 3 4 4 4 4 4 4 4 4 4 5 5 6 6 6 6 6
22 12 10 12 11 11 1 3 19 11 3 10 10 10 5 -0 1 5 6 6 15 12 4 13 10 5 6 4 5 4 4 5 3 -0 -2 -2 -0 2 3 2 3 4 7 10 15 18 16 9 5 4 4 2 -0 1 3 6 7 7 7 7 7 7 7 6 5 3 0 -2 -3 -2 -3 -3 -2 0 1 3 5 4 3 2 3 3 3 4 4 4 4 4 4 4 4 4 5 5 6 6 6
14 17 10 12 8 8 8 -2 10 14 3 7 7 9 8 3 -0 -1 3 -4 5 16 15 26 23 11 10 9 5 2 2 3 7 6 4 3 1 0 -2 -0 1 2 3 3 2 -0 -2 -3 -3 -1 2 4 5 6 7 8 7 6 7 7 7 8 8 7 5 3 1 -1 -2 -1 -1 -1 -0 1 3 5 6 6 5 4 4 3 3 4 4 5 5 5 5 5 4 4 4 5 5 6 7
10 18 8 12 6 -1 16 3 -2 11 8 9 5 4 7 6 5 -1 3 -6 -11 -2 1 13 20 15 15 13 5 4 5 3 6 6 7 7 5 5 2 3 2 -1 -4 -5 -4 -4 -3 -2 0 2 3 4 6 11 10 7 5 4 5 5 5 4 4 5 4 4 2 1 2 2 2 3 3 5 6 7 7 7 6 5 4 4 4 5 5 5 5 6 6 7 7 6 5 5 5 5 5
15 20 8 10 5 -7 12 7 -1 8 3 6 7 5 4 6 10 2 5 1 -8 -8 -14 -9 2 6 9 8 2 2 4 2 3 3 3 4 4 5 3 3 -1 -6 -9 -7 -1 2 5 5 5 5 6 7 8 11 9 5 3 1 -0 0 -0 -1 -0 0 1 2 2 3 4 4 5 6 7 7 8 7 5 5 5 4 4 4 5 6 7 7 7 8 7 7 7 7 6 6 6 6 5
18 20 12 9 5 -9 -0 7 6 10 1 -2 5 8 4 5 8 3 8 9 7 9 -3 -11 -8 -5 -0 2 2 2 3 2 2 2 2 2 3 1 1 2 -0 1 1 4 9 8 8 8 8 9 9 11 10 9 5 2 -1 -3 -2 -2 -1 -1 0 2 3 5 5 6 6 7 8 8 8 7 6 5 4 3 3 4 5 6 7 8 9 9 9 9 8 8 8 8 7 6 6 6 7
13 16 15 8 8 -3 -6 6 5 6 9 1 -0 4 6 8 9 4 6 6 10 18 11 3 -1 -4 -5 -4 -2 0 1 2 3 3 4 4 1 -1 1 2 2 7 8 12 17 13 10 10 12 11 10 11 11 7 1 -2 -4 -3 -2 -1 0 2 3 5 7 8 8 8 8 9 8 8 6 4 3 3 3 3 5 6 7 8 8 8 7 7 7 7 7 7 7 8 8 7 7 6 7
9 14 18 9 12 6 -7 5 2 -1 13 11 0 -4 -1 6 4 -1 -1 -2 1 8 8 7 6 6 4 1 0 -1 -2 -2 -0 1 4 5 1 -0 1 -0 1 7 12 11 4 4 8 9 11 11 9 8 6 1 -4 -4 -2 0 2 3 5 6 8 8 9 9 8 8 7 7 6 6 5 5 5 5 6 6 7 8 7 7 6 6 5 5 6 5 5 5 5 6 6 7 7 6 6
10 13 20 13 12 9 -5 4 5 -6 4 11 6 0 0 6 2 -5 -3 -0 0 3 5 6 7 11 12 11 10 8 8 6 4 2 3 5 1 0 1 1 1 4 12 2 -13 -3 11 9 5 3 2 1 -1 -2 -1 3 5 7 9 9 10 9 9 8 7 6 6 5 5 5 5 6 7 8 8 8 8 8 8 7 6 5 5 5 5 6 6 6 6 6 6 6 6 6 6 6 6
12 11 17 15 10 12 1 -1 9 1 -5 3 6 4 4 9 10 6 7 6 1 1 4 5 5 9 10 9 10 11 12 13 12 9 7 7 5 4 5 5 1 1 9 5 -1 10 18 15 10 4 2 3 3 5 8 9 9 10 9 8 7 7 6 5 5 5 5 6 6 6 6 7 7 8 8 8 8 8 7 7 6 4 4 4 4 5 6 7 8 8 8 8 8 8 8 8 8
11 9 16 17 6 13 11 -3 10 14 1 4 7 4 3 5 9 8 9 7 1 2 4 2 1 5 6 5 8 10 9 9 11 13 11 9 9 9 10 8 7 8 13 13 12 13 13 16 17 13 10 9 10 10 10 9 8 7 6 5 5 4 5 5 5 5 6 5 6 6 6 6 6 6 6 6 7 6 5 5 5 4 4 5 5 6 6 8 8 9 9 9 9 9 9 9 9
8 4 14 22 4 3 17 5 5 18 11 6 11 12 4 3 8 10 10 8 5 7 10 10 7 6 7 7 8 6 5 8 10 13 13 11 9 9 10 11 13 15 16 14 12 10 11 13 12 11 9 8 8 8 7 6 5 5 4 4 4 3 4 4 4 4 4 4 4 4 5 5 5 5 5 5 5 5 5 5 6 7 7 7 8 7 7 6 6 7 7 8 10 10 10 9 9
9 -0 4 19 9 -1 14 10 -2 9 14 10 14 17 12 8 10 12 11 8 8 11 11 10 9 8 10 9 7 3 3 6 8 10 12 12 11 10 10 11 13 14 14 12 11 11 11 9 8 8 7 7 7 6 5 5 4 4 4 3 3 3 3 3 3 3 3 4 5 5 6 5 5 5 5 5 6 6 6 7 7 7 7 8 8 8 8 7 7 7 6 7 8 9 10 10 11
14 2 -7 0 8 3 8 10 -1 -4 3 7 8 10 14 15 11 8 9 9 9 10 8 4 4 8 10 8 7 7 9 9 9 9 9 10 11 10 8 6 6 7 8 7 7 6 5 6 5 5 4 4 4 4 3 3 3 3 2 2 2 2 3 3 3 4 4 4 5 6 6 6 6 6 7 7 7 7 7 7 7 7 8 8 8 8 8 8 8 8 7 7 7 8 9 10 11
13 7 -1 -4 3 7 7 11 11 2 -3 1 4 5 10 11 8 7 8 8 6 5 5 6 7 8 7 6 6 7 8 7 6 6 5 6 7 8 7 5 3 3 4 4 3 2 2 2 2 2 2 2 3 4 3 3 3 3 4 4 4 4 4 4 4 5 5 5 5 4 3 3 4 5 5 5 6 6 6 6 7 7 8 8 8 8 8 8 8 8 8 8 7 7 7 8 10
12 11 10 9 7 8 6 3 7 7 0 -2 1 3 6 6 4 3 0 1 5 2 1 4 5 5 4 4 4 4 5 4 3 2 1 -0 -1 -0 0 -0 -1 -1 -0 -0 -0 0 1 2 2 1 -0 -0 1 2 3 3 4 4 5 6 6 6 6 6 6 6 6 6 6 5 5 5 5 4 4 4 4 4 5 5 5 5 6 6 6 7 7 6 7 8 8 7 7 7 6 6 6
12 11 9 10 11 8 4 -1 -2 -0 -2 -3 -2 -1 1 0 -3 -5 -6 2 9 4 -1 1 1 1 2 2 1 2 2 2 1 0 -1 -2 -2 -2 -1 -0 -0 -0 1 1 -0 0 2 4 5 5 4 4 3 3 3 4 4 4 5 6 7 7 6 6 6 6 5 5 5 5 6 6 6 6 4 4 3 3 4 5 5 5 5 5 4 4 5 4 4 5 5 6 6 6 5 5 5
9 10 11 11 12 11 9 6 2 1 2 1 1 -0 -2 -4 -6 -5 -1 8 10 2 1 2 1 3 2 1 1 1 1 1 2 3 3 2 3 4 5 6 7 7 6 7 7 7 7 7 8 9 10 10 10 9 8 7 7 7 7 8 8 8 8 7 6 6 6 5 5 5 5 4 4 3 3 3 3 3 3 3 3 4 4 4 3 3 3 4 3 3 3 3 3 4 4 3 4
10 13 17 17 15 14 12 12 11 11 12 11 8 5 3 2 3 5 6 9 7 1 2 2 1 3 2 3 2 3 4 5 6 8 10 10 10 10 10 10 10 10 10 11 12 12 11 11 11 11 11 11 11 12 11 11 10 9 9 9 8 8 8 8 7 7 7 6 6 6 5 4 3 2 2 2 2 3 3 3 3 3 3 3 3 3 2 3 3 3 2 2 2 2 2 2 2
6 10 12 14 14 13 14 15 16 16 15 15 16 14 11 11 12 11 11 12 9 5 4 3 2 4 6 9 9 10 12 12 12 13 14 14 14 13 12 12 10 10 11 10 10 9 9 9 9 9 8 8 8 9 9 9 9 8 8 8 8 7 7 6 6 5 5 5 5 5 4 4 3 4 4 4 4 4 4 4 4 4 4 3 3 3 2 2 2 2 2 2 2 2 2 3 2
1 4 5 9 10 10 12 12 12 12 10 12 14 14 13 12 12 12 13 16 16 14 12 11 11 12 13 14 14 14 14 13 12 11 10 9 9 9 7 7 6 6 5 5 5 5 5 4 4 4 3 4 4 4 4 3 3 3 3 4 4 4 4 3 3 3 3 4 4 4 4 4 4 4 4 4 4 5 5 5 4 4 4 4 3 3 2 2 2 2 2 2 3 3 3 3 3
2 3 2 4 5 5 6 7 7 7 7 8 8 9 9 8 8 7 8 12 14 13 13 13 13 12 12 11 10 9 8 7 6 5 5 4 4 3 3 2 2 2 2 2 3 3 3 2 2 2 2 1 1 0 1 1 1 1 1 2 2 2 2 2 2 2 3 3 4 4 4 4 4 4 4 4 4 4 4 4 4 4 4 4 4 4 3 1 1 1 3 3 3 3 3 3 3
4 5 3 3 4 4 3 3 4 4 4 4 4 4 5 5 5 4 5 6 6 6 6 6 6 6 5 5 5 4 4 4 3 3 2 2 1 1 1 1 1 2 2 2 2 2 2 1 1 1 1 1 1 1 1 1 1 1 2 2 2 2 2 2 2 2 3 3 3 3 4 4 4 4 4 4 4 4 4 4 4 4 4 4 4 4 4 3 2 2 4 5 4 4 4 4 4
4 5 5 5 5 4 4 3 3 3 2 2 3 3 2 3 3 3 3 2 2 3 2 3 2 2 2 2 2 2 2 2 1 2 1 1 1 1 1 1 2 2 2 2 2 2 2 2 2 1 2 2 2 3 2 3 2 2 2 2 2 2 2 2 2 2 2 2 2 2 3 3 4 4 4 4 4 4 4 4 4 4 4 4 4 3 4 4 4 4 4 6 6 5 4 5 5
5 6 5 5 5 5 5 5 5 5 5 4 4 4 5 5 4 4 4 2 3 3 2 2 3 3 4 3 4 3 3 3 3 3 3 3 3 3 4 3 4 4 4 5 4 4 4 4 4 4 5 5 4 4 4 4 4 4 4 4 4 4 4 4 4 4 5 5 5 5 4 4 5 5 5 5 5 6 5 5 5 5 5 5 5 5 5 5 5 5 4 5 6 6 6 5 6
5 5 5 4 4 4 5 6 7 7 8 8 7 8 8 5 3 3 4 3 4 5 4 5 5 5 5 5 5 4 4 5 4 4 4 4 4 4 5 4 4 4 4 4 4 5 5 6 6 6 6 6 7 7 6 7 7 7 8 8 9 9 9 8 8 8 8 8 8 9 9 8 8 8 8 8 7 8 8 8 8 8 7 7 7 7 8 7 7 7 6 6 6 7 7 6 6
5 5 5 5 5 4 4 4 5 6 7 7 9 11 7 2 3 4 4 4 5 5 4 4 4 3 3 3 3 3 3 4 4 4 4 4 4 5 5 5 5 5 5 5 5 5 5 6 7 7 7 7 8 8 8 9 8 8 8 8 8 8 9 9 9 8 8 8 8 8 9 8 9 9 9 9 8 8 8 8 8 8 8 8 8 8 8 8 8 8 8 8 7 7 9 10 9
8 8 7 7 7 7 6 5 5 4 4 4 5 4 0 -0 4 5 4 5 4 4 3 3 3 3 3 3 3 4 4 4 5 5 6 6 5 5 6 6 6 6 6 6 6 6 5 6 6 6 6 6 7 7 7 7 7 8 9 9 8 8 9 9 10 9 8 8 8 8 8 9 9 9 10 10 10 10 9 9 9 9 9 8 8 8 8 8 9 8 8 8 8 6 6 9 11
9 9 9 9 9 10 10 10 10 8 7 6 4 2 1 3 5 4 4 5 4 4 4 5 5 4 5 5 5 5 6 6 6 6 7 7 6 6 6 6 7 6 7 6 6 6 6 6 6 6 6 6 6 6 6 6 7 7 8 9 10 10 10 10 12 12 12 11 11 10 10 10 10 10 11 11 12 12 12 13 13 12 12 12 11 11 11 10 10 10 9 9 9 8 7 6 9
8 8 8 8 7 8 9 9 10 9 8 7 7 7 7 7 6 6 7 7 7 7 7 7 6 6 7 7 7 7 7 8 8 8 8 8 8 8 8 8 8 8 8 8 8 9 9 9 9 10 10 10 10 10 10 11 10 10 9 10 11 11 11 11 11 12 12 13 13 13 13 13 13 13 13 13 13 13 12 13 13 14 14 14 14 14 14 13 12 13 13 11 10 10 11 10 10
7 7 8 7 6 6 6 6 7 7 6 5 6 7 6 6 7 8 8 7 8 8 8 8 8 8 8 8 8 8 8 9 9 9 8 8 8 8 8 8 8 9 9 10 10 11 11 11 12 12 12 12 12 12 12 12 13 13 12 12 12 12 12 11 11 11 10 10 10 11 11 11 11 11 11 11 10 11 10 10 10 10 10 10 10 10 11 12 12 12 12 12 11 10 10 11 13
5 5 5 5 5 5 5 5 5 5 6 5 6 7 7 8 7 7 8 8 8 7 8 8 8 8 8 9 9 9 10 10 10 10 9 9 9 10 10 10 11 12 12 12 12 12 13 13 13 13 13 12 12 12 12 12 12 12 12 12 12 12 11 11 11 11 10 10 9 9 9 9 9 8 8 8 9 9 9 9 9 9 9 9 9 9 8 8 9 10 9 10 11 10 8 7 9
6 6 6 5 5 5 6 6 6 6 6 7 7 7 7 8 8 8 8 7 7 8 8 8 8 9 9 9 9 9 9 9 9 10 11 12 12 12 12 12 12 11 11 11 11 12 12 12 12 11 11 11 11 10 10 10 9 9 8 8 8 8 9 9 8 8 9 9 9 9 9 9 8 8 8 8 8 8 8 8 8 8 8 8 9 9 9 9 8 9 9 9 9 10 10 7 6
7 7 7 7 7 7 6 6 7 7 7 7 7 7 7 7 7 7 7 8 8 8 8 8 9 9 8 8 8 9 10 11 12 12 12 11 11 11 11 11 11 10 10 10 9 9 8 8 7 7 7 7 8 7 7 7 7 7 6 5 5 4 4 5 5 5 5 5 5 5 5 5 5 5 5 5 5 5 5 5 5 5 5 5 6 6 6 7 7 7 8 8 8 8 9 9 7
8 7 7 7 7 7 7 6 6 6 6 6 7 7 7 6 7 7 7 8 8 8 8 8 8 8 8 9 10 11 11 12 12 11 10 10 11 11 10 10 10 10 9 8 8 7 6 6 5 5 6 6 6 6 5 5 5 5 5 5 5 5 4 4 4 4 4 4 3 3 4 3 4 3 3 4 4 4 4 4 4 4 4 4 4 5 5 5 6 7 7 7 8 8 8 8 8
8 8 7 7 7 7 6 6 6 6 6 7 8 7 6 6 6 7 7 7 6 7 7 6 7 8 9 10 10 10 11 10 9 8 8 8 8 8 7 8 7 7 7 6 6 6 5 6 6 6 6 5 5 4 4 4 4 4 4 4 4 4 3 3 3 3 3 3 3 3 2 2 3 3 3 3 3 3 3 3 4 4 4 5 5 5 6 6 6 7 7 8 8 9 9 9 9
8 8 8 7 7 7 7 7 7 7 7 7 8 7 5 6 6 6 6 5 5 6 6 7 8 8 8 9 9 10 10 10 8 7 6 6 6 6 6 6 6 5 5 5 5 6 6 6 6 5 4 4 4 3 3 3 3 3 2 2 2 2 2 2 2 2 2 2 2 2 2 2 1 1 2 2 3 3 4 4 4 5 5 6 7 7 7 7 7 7 8 8 8 8 9 10 10
7 8 7 7 7 7 7 8 6 7 6 5 6 6 5 5 4 4 4 4 6 7 7 7 7 7 9 10 10 10 9 8 7 7 7 7 7 6 6 5 5 6 6 6 6 5 5 4 4 3 3 3 3 3 3 3 3 3 2 2 2 2 3 2 2 3 3 2 2 2 2 3 3 2 2 2 2 3 3 4 4 4 5 5 6 7 7 7 8 8 9 9 9 9 8 9 9
7 6 7 7 8 7 8 7 5 6 5 4 4 5 5 3 2 3 5 6 7 7 7 7 8 9 9 9 9 8 8 7 7 8 7 6 6 5 5 5 5 5 5 4 4 3 4 4 3 3 3 3 3 3 3 4 4 4 3 3 3 3 3 4 4 4 4 4 3 4 3 4 5 5 5 5 5 5 5 5 5 5 5 5 5 6 6 7 7 8 9 9 10 10 11 11 11
6 6 7 8 8 8 7 6 5 6 5 4 4 4 3 2 2 5 7 7 7 7 8 8 9 9 8 8 9 8 8 7 7 6 6 5 6 6 5 5 5 4 4 4 4 3 3 4 4 4 5 5 5 5 5 5 5 5 5 5 5 5 5 5 5 5 5 5 4 4 4 4 5 5 5 6 7 7 8 8 8 9 9 9 9 9 9 9 9 9 9 9 9 10 10 10 11
7 7 8 8 9 8 7 6 5 5 3 3 4 3 3 3 5 7 8 7 7 8 9 9 8 8 8 8 7 6 5 5 6 5 5 6 5 5 5 5 6 5 5 4 4 4 4 5 5 5 5 5 5 5 5 5 5 6 6 6 6 6 6 6 5 5 5 5 5 5 5 5 6 6 7 7 7 8 8 8 8 9 9 9 10 10 10 9 9 9 8 8 8 7 7 7 6
8 8 8 8 8 7 6 4 4 5 4 3 4 4 4 6 7 8 8 7 7 8 8 7 6 5 6 7 7 6 5 5 6 5 5 5 4 5 5 5 6 6 5 5 5 5 5 5 5 5 5 5 5 5 5 5 5 5 5 5 5 5 5 5 5 5 5 5 6 6 7 8 8 9 9 9 10 9 10 10 10 10 9 9 9 9 9 8 8 7 7 6 5 5 4 4 4
9 7 7 7 7 7 6 5 5 7 5 4 5 4 5 6 7 7 8 9 10 9 8 6 5 6 9 10 8 6 5 5 5 4 3 3 4 5 5 4 4 4 5 5 5 5 5 5 5 5 5 5 5 5 5 5 5 5 5 5 5 4 5 5 5 6 7 7 8 8 9 9 8 9 9 9 9 9 9 9 9 9 9 8 8 7 7 6 6 5 4 4 4 4 3 3 3
9 8 7 6 6 5 6 7 7 6 6 6 5 5 6 6 6 7 9 10 9 9 9 9 9 10 10 8 4 3 3 4 4 3 3 3 4 4 4 4 4 3 4 4 4 4 4 5 5 5 5 5 5 5 5 6 6 6 6 5 5 5 5 6 6 7 8 8 8 8 8 8 8 8 7 7 7 7 7 7 7 7 7 6 6 5 5 5 5 5 5 4 5 5 5 6 5
8 8 7 7 7 7 7 9 8 7 7 7 5 5 7 6 8 11 10 9 9 9 10 10 8 7 6 3 2 2 3 4 4 4 4 4 4 4 3 3 3 3 4 3 3 4 3 4 4 4 5 5 6 6 6 6 6 6 6 6 7 7 7 8 8 8 8 8 8 8 8 8 8 8 7 7 7 7 7 6 6 5 5 5 6 6 6 7 8 9 10 10 11 11 12 13 14
7 8 8 8 9 9 8 8 8 8 7 8 6 3 5 7 10 11 9 9 11 10 7 5 4 4 4 3 3 5 5 5 5 4 4 4 3 3 2 3 3 3 3 3 3 4 4 4 4 4 5 5 6 6 6 6 6 6 7 8 8 9 9 9 9 9 9 8 8 8 8 8 8 8 8 7 7 6 6 6 6 6 6 7 8 9 10 11 13 15 16 18 19 21 22 23 24
7 8 9 8 8 9 9 7 7 8 8 9 8 5 5 8 8 7 9 10 9 5 3 5 6 5 5 5 6 6 6 5 4 3 3 3 3 3 3 3 3 3 3 3 3 4 4 5 6 6 7 6 6 6 6 7 8 8 9 9 8 9 9 9 9 9 8 8 8 8 7 7 7 7 7 6 6 6 6 7 8 9 10 12 13 15 15 16 18 19 21 23 24 26 27 28 30
7 8 8 9 9 10 10 10 8 8 8 7 9 8 6 6 7 8 10 9 6 5 6 7 7 5 5 6 5 4 4 3 3 3 3 4 3 3 3 3 3 3 3 4 5 5 6 7 7 7 7 7 7 7 7 7 8 8 8 8 8 9 9 9 9 8 8 8 7 7 7 6 6 6 6 7 7 8 9 11 12 14 15 16 17 19 21 22 23 23 24 24 25 26 26 26 28
9 8 7 9 10 9 10 10 9 8 8 7 10 10 4 4 10 10 8 7 6 5 6 6 5 4 4 4 4 4 4 4 5 5 4 4 4 3 3 3 3 4 4 5 7 8 8 8 7 6 6 6 6 6 6 6 7 8 9 9 9 9 8 8 8 8 7 7 7 7 7 7 8 9 10 11 12 14 15 16 18 19 21 22 23 23 24 25 25 25 25 24 23 23 23 23 24
Height
5804 5808 5812 5816 5819 5823 5826 5829 5832 5835 5837 5839 5841 5843 5844 5847 5848 5850 5852 5853 5855 5856 5859 5861 5862 5863 5864 5865 5866 5866 5866 5867 5867 5868 5869 5871 5873 5873 5874 5875 5875 5876 5877 5878 5879 5880 5881 5882 5882 5883 5883 5884 5884 5885 5886 5886 5887 5887 5887 5888 5888 5888 5888 5888 5889 5889 5889 5889 5890 5890 5890 5890 5890 5891 5891 5891 5891 5891 5891 5890 5890 5889 5889 5889 5889 5889 5889 5888 5888 5888 5888 5888 5887 5887 5887 5887 5887
5801 5805 5809 5812 5816 5820 5823 5826 5830 5833 5835 5837 5839 5841 5843 5845 5846 5848 5849 5850 5852 5854 5856 5858 5860 5861 5862 5863 5864 5864 5864 5865 5865 5866 5867 5868 5870 5871 5871 5872 5873 5874 5875 5876 5877 5878 5879 5880 5880 5881 5881 5882 5882 5883 5883 5884 5884 5885 5885 5885 5886 5886 5886 5887 5887 5887 5887 5887 5887 5888 5888 5888 5888 5888 5888 5888 5889 5889 5889 5888 5888 5888 5887 5887 5887 5887 5886 5886 5886 5886 5885 5885 5885 5884 5884 5884 5884
5797 5801 5806 5809 5813 5817 5821 5825 5828 5830 5833 5835 5837 5839 5841 5843 5844 5846 5847 5848 5850 5851 5853 5855 5857 5858 5860 5860 5861 5862 5863 5863 5863 5863 5864 5866 5868 5869 5869 5870 5871 5872 5872 5873 5874 5875 5876 5877 5878 5879 5879 5879 5880 5880 5881 5881 5882 5882 5882 5883 5883 5884 5884 5884 5885 5885 5885 5885 5885 5885 5885 5885 5885 5886 5886 5886 5886 5886 5886 5886 5886 5885 5885 5885 5884 5884 5884 5884 5883 5883 5883 5883 5882 5882 5882 5882 5881
5795 5798 5803 5807 5811 5815 5819 5822 5825 5828 5831 5833 5835 5837 5839 5841 5842 5844 5845 5847 5848 5850 5851 5853 5855 5857 5858 5858 5860 5861 5861 5861 5861 5862 5862 5864 5866 5867 5867 5867 5868 5870 5870 5871 5872 5873 5874 5875 5876 5877 5877 5877 5877 5878 5878 5878 5879 5879 5879 5880 5880 5881 5881 5882 5882 5882 5882 5882 5882 5882 5882 5882 5882 5883 5883 5883 5883 5883 5883 5883 5882 5882 5882 5881 5881 5881 5881 5881 5880 5880 5880 5880 5880 5879 5879 5879 5879
5793 5796 5800 5804 5808 5813 5817 5820 5823 5826 5828 5830 5833 5835 5837 5839 5841 5843 5844 5845 5847 5848 5850 5851 5853 5854 5855 5856 5857 5858 5858 5859 5859 5860 5860 5862 5864 5865 5865 5865 5866 5868 5868 5869 5870 5870 5871 5872 5873 5874 5874 5875 5875 5875 5875 5875 5876 5876 5876 5877 5877 5878 5879 5879 5879 5880 5880 5879 5879 5879 5879 5879 5879 5879 5880 5880 5880 5880 5880 5880 5879 5879 5878 5878 5878 5878 5878 5877 5877 5877 5877 5877 5876 5876 5876 5876 5875
5792 5795 5799 5803 5806 5810 5814 5818 5821 5823 5825 5827 5830 5833 5835 5837 5839 5841 5842 5843 5845 5846 5848 5849 5850 5852 5853 5854 5855 5856 5856 5857 5857 5857 5858 5860 5862 5863 5863 5863 5865 5866 5867 5867 5868 5869 5869 5870 5870 5871 5871 5871 5872 5872 5872 5873 5873 5873 5874 5874 5875 5875 5876 5876 5877 5877 5877 5877 5877 5877 5877 5877 5877 5877 5877 5877 5877 5876 5876 5876 5876 5876 5876 5875 5875 5875 5874 5874 5874 5874 5874 5873 5873 5873 5872 5872 5872
5791 5795 5799 5802 5805 5808 5812 5816 5819 5821 5823 5826 5829 5831 5833 5835 5838 5839 5841 5842 5843 5844 5846 5847 5848 5850 5851 5851 5853 5854 5855 5855 5855 5856 5856 5858 5859 5860 5861 5862 5863 5864 5865 5865 5866 5867 5867 5867 5868 5868 5868 5868 5868 5869 5870 5870 5870 5871 5871 5872 5872 5873 5873 5874 5874 5874 5874 5874 5874 5874 5874 5874 5874 5874 5874 5874 5874 5874 5873 5873 5873 5873 5873 5872 5872 5872 5872 5871 5871 5871 5870 5870 5869 5869 5869 5868 5868
5792 5795 5798 5801 5803 5806 5810 5813 5816 5819 5822 5824 5827 5829 5832 5834 5836 5838 5839 5841 5841 5842 5844 5845 5846 5848 5849 5850 5851 5852 5853 5853 5854 5854 5854 5855 5856 5857 5858 5859 5860 5861 5862 5862 5863 5864 5864 5865 5865 5865 5865 5865 5866 5867 5867 5868 5868 5868 5869 5869 5870 5871 5871 5871 5871 5871 5871 5871 5871 5872 5872 5872 5872 5871 5871 5871 5871 5871 5870 5870 5870 5870 5870 5869 5869 5869 5868 5868 5868 5867 5867 5867 5866 5866 5865 5865 5865
5792 5795 5797 5800 5802 5805 5809 5812 5815 5818 5820 5823 5825 5828 5830 5833 5835 5836 5838 5840 5840 5841 5842 5843 5844 5846 5847 5848 5849 5850 5851 5852 5852 5852 5853 5853 5854 5855 5856 5857 5858 5858 5859 5859 5860 5860 5861 5862 5862 5863 5863 5864 5864 5865 5865 5866 5867 5867 5867 5868 5868 5868 5868 5869 5868 5868 5868 5868 5868 5869 5869 5869 5869 5869 5868 5868 5868 5867 5867 5867 5867 5867 5866 5866 5866 5865 5865 5865 5865 5864 5864 5863 5863 5862 5862 5862 5861
5791 5794 5796 5799 5802 5805 5809 5812 5814 5816 5819 5821 5823 5826 5828 5830 5833 5834 5836 5837 5838 5839 5841 5842 5842 5843 5845 5847 5848 5849 5850 5850 5851 5851 5852 5852 5853 5854 5854 5855 5856 5856 5857 5857 5858 5858 5859 5860 5860 5861 5861 5862 5862 5863 5863 5864 5865 5865 5865 5865 5865 5866 5866 5865 5865 5865 5865 5865 5865 5865 5865 5866 5866 5866 5865 5865 5865 5864 5864 5864 5863 5863 5863 5862 5862 5862 5862 5861 5861 5861 5860 5860 5859 5859 5858 5858 5858
5791 5793 5796 5798 5801 5805 5808 5811 5813 5815 5818 5820 5821 5824 5827 5829 5830 5831 5833 5834 5835 5837 5839 5840 5839 5840 5842 5845 5847 5848 5848 5849 5849 5849 5850 5851 5852 5852 5853 5853 5854 5855 5856 5857 5857 5857 5858 5858 5859 5859 5859 5859 5860 5860 5861 5861 5862 5862 5862 5862 5862 5862 5863 5862 5862 5862 5862 5862 5862 5862 5862 5863 5863 5863 5862 5862 5862 5861 5861 5860 5860 5859 5859 5859 5858 5858 5858 5857 5857 5857 5857 5856 5856 5855 5855 5854 5854
5791 5793 5795 5798 5801 5804 5807 5809 5812 5814 5816 5818 5820 5822 5825 5826 5828 5829 5831 5832 5833 5835 5836 5838 5838 5838 5841 5843 5845 5845 5846 5846 5846 5847 5848 5849 5849 5849 5850 5852 5853 5854 5855 5856 5856 5856 5856 5857 5857 5857 5857 5857 5857 5857 5858 5858 5859 5859 5860 5860 5859 5859 5859 5859 5859 5859 5859 5859 5859 5859 5859 5859 5859 5859 5859 5859 5858 5858 5857 5857 5856 5856 5855 5855 5854 5854 5854 5853 5853 5853 5853 5852 5852 5852 5851 5851 5850
5791 5793 5795 5797 5800 5803 5805 5808 5811 5813 5815 5816 5818 5820 5822 5823 5825 5828 5829 5830 5831 5833 5834 5836 5837 5837 5839 5840 5841 5842 5842 5843 5844 5845 5845 5846 5846 5847 5850 5852 5852 5852 5853 5853 5853 5853 5854 5854 5854 5854 5854 5854 5854 5855 5855 5856 5856 5857 5857 5857 5856 5856 5856 5856 5856 5856 5855 5855 5855 5855 5856 5855 5855 5855 5855 5854 5854 5854 5853 5852 5852 5852 5852 5851 5851 5850 5850 5850 5849 5849 5848 5848 5848 5847 5847 5847 5846
5790 5792 5794 5796 5799 5802 5804 5807 5809 5811 5813 5815 5816 5818 5820 5821 5823 5825 5826 5828 5829 5831 5832 5833 5834 5835 5836 5837 5837 5838 5839 5840 5841 5841 5842 5842 5844 5847 5850 5851 5850 5850 5850 5851 5851 5851 5851 5851 5851 5851 5851 5851 5852 5852 5853 5853 5853 5853 5853 5853 5853 5853 5853 5853 5853 5852 5852 5852 5852 5852 5852 5852 5851 5851 5850 5850 5850 5849 5849 5848 5848 5848 5848 5847 5847 5846 5846 5846 5845 5845 5844 5844 5843 5843 5843 5842 5842
5790 5791 5793 5796 5798 5801 5803 5806 5808 5810 5812 5813 5815 5817 5818 5819 5821 5822 5824 5826 5826 5828 5829 5831 5832 5833 5834 5835 5835 5836 5838 5838 5838 5839 5839 5841 5844 5847 5848 5848 5848 5848 5848 5848 5848 5848 5848 5848 5848 5849 5849 5849 5849 5850 5850 5850 5850 5850 5850 5850 5850 5850 5849 5849 5849 5849 5849 5849 5848 5848 5848 5848 5847 5847 5846 5846 5845 5845 5844 5844 5844 5844 5843 5843 5843 5842 5842 5841 5841 5841 5840 5840 5839 5839 5838 5838 5838
5790 5791 5793 5795 5798 5800 5803 5805 5807 5809 5811 5812 5814 5815 5816 5817 5819 5820 5823 5824 5824 5825 5826 5827 5829 5830 5832 5833 5834 5835 5836 5836 5837 5837 5838 5841 5844 5844 5844 5845 5845 5845 5846 5846 5846 5845 5845 5845 5845 5846 5847 5847 5847 5846 5846 5846 5846 5846 5846 5846 5846 5846 5845 5845 5845 5845 5845 5845 5844 5844 5844 5843 5843 5842 5842 5841 5841 5840 5840 5840 5840 5839 5839 5838 5838 5838 5837 5837 5836 5836 5836 5835 5835 5834 5834 5833 5833
5790 5791 5793 5795 5797 5800 5802 5804 5806 5808 5810 5811 5813 5814 5815 5816 5817 5819 5821 5822 5822 5823 5823 5824 5826 5827 5829 5830 5831 5832 5833 5834 5835 5836 5837 5841 5842 5840 5840 5841 5841 5842 5842 5843 5842 5842 5842 5842 5842 5843 5843 5843 5843 5843 5843 5843 5842 5842 5842 5842 5842 5842 5841 5841 5841 5841 5841 5840 5840 5839 5839 5838 5838 5837 5837 5837 5836 5836 5836 5835 5835 5835 5834 5834 5834 5833 5832 5832 5831 5831 5831 5830 5830 5829 5828 5828 5827
5791 5792 5794 5796 5798 5800 5802 5804 5805 5807 5809 5810 5812 5813 5814 5815 5816 5818 5819 5820 5822 5822 5822 5823 5823 5824 5826 5827 5828 5829 5830 5833 5834 5834 5834 5836 5837 5837 5837 5838 5838 5838 5839 5839 5839 5839 5839 5839 5839 5839 5839 5839 5840 5840 5840 5839 5839 5838 5838 5838 5838 5838 5837 5837 5837 5837 5836 5835 5835 5834 5834 5834 5833 5833 5833 5832 5832 5832 5831 5831 5830 5829 5829 5829 5829 5828 5827 5827 5826 5826 5825 5825 5824 5824 5823 5822 5822
5792 5793 5795 5796 5798 5800 5802 5804 5805 5806 5808 5809 5811 5812 5814 5815 5815 5816 5817 5818 5820 5820 5820 5821 5821 5822 5823 5824 5825 5827 5828 5830 5831 5831 5830 5831 5833 5834 5835 5835 5836 5836 5836 5837 5836 5835 5835 5835 5836 5836 5836 5836 5836 5836 5836 5835 5834 5834 5833 5833 5833 5833 5833 5833 5832 5832 5832 5831 5830 5830 5829 5829 5829 5828 5828 5828 5828 5827 5827 5826 5825 5824 5824 5823 5823 5822 5822 5821 5821 5820 5819 5819 5818 5818 5817 5816 5816
5792 5794 5795 5797 5799 5800 5802 5804 5804 5806 5807 5808 5810 5812 5813 5814 5814 5814 5815 5817 5818 5818 5818 5819 5819 5818 5819 5822 5824 5825 5825 5826 5827 5828 5829 5829 5830 5831 5832 5832 5833 5833 5833 5833 5832 5832 5831 5832 5833 5833 5833 5833 5832 5832 5831 5830 5830 5829 5829 5828 5828 5828 5828 5828 5827 5827 5827 5826 5826 5825 5825 5824 5824 5824 5823 5823 5823 5822 5822 5821 5820 5819 5819 5818 5817 5816 5816 5815 5815 5814 5814 5813 5812 5812 5811 5810 5810
5792 5793 5795 5797 5798 5799 5801 5803 5804 5805 5806 5807 5809 5810 5811 5812 5812 5812 5813 5815 5816 5816 5816 5816 5816 5815 5818 5821 5822 5822 5823 5823 5824 5825 5826 5826 5827 5827 5828 5829 5830 5830 5830 5830 5829 5829 5828 5828 5829 5829 5828 5828 5828 5828 5827 5826 5826 5826 5825 5824 5823 5823 5823 5823 5823 5823 5822 5821 5821 5820 5819 5819 5819 5819 5818 5818 5817 5817 5816 5816 5815 5814 5813 5813 5812 5811 5810 5810 5809 5808 5808 5807 5807 5806 5805 5804 5804
5791 5793 5795 5796 5797 5799 5801 5802 5803 5804 5805 5806 5807 5807 5808 5810 5811 5811 5812 5813 5814 5814 5813 5813 5814 5815 5818 5819 5819 5820 5821 5821 5821 5822 5823 5823 5823 5823 5824 5825 5826 5827 5827 5827 5827 5826 5825 5825 5825 5824 5824 5823 5823 5823 5823 5823 5822 5821 5821 5820 5819 5819 5818 5818 5817 5817 5817 5816 5815 5815 5814 5814 5813 5813 5813 5812 5811 5811 5810 5810 5809 5809 5808 5807 5806 5805 5805 5804 5803 5803 5802 5801 5801 5800 5800 5799 5798
5792 5794 5795 5795 5797 5799 5800 5801 5802 5803 5804 5804 5805 5805 5807 5809 5810 5811 5810 5811 5811 5810 5810 5812 5815 5816 5816 5816 5817 5818 5818 5818 5819 5818 5819 5819 5820 5820 5820 5821 5821 5822 5823 5823 5823 5823 5823 5822 5822 5821 5820 5819 5819 5819 5819 5818 5818 5817 5816 5815 5815 5814 5814 5813 5812 5812 5811 5810 5809 5809 5808 5808 5807 5807 5807 5806 5805 5805 5804 5804 5803 5802 5802 5801 5800 5799 5799 5798 5798 5797 5797 5796 5795 5795 5794 5793 5793
5792 5793 5794 5795 5797 5799 5800 5800 5801 5802 5802 5803 5803 5804 5805 5807 5808 5809 5808 5808 5807 5806 5809 5812 5814 5814 5814 5814 5815 5816 5816 5817 5817 5816 5816 5816 5816 5816 5816 5816 5816 5817 5818 5818 5819 5819 5819 5819 5819 5818 5817 5815 5815 5815 5814 5813 5813 5812 5811 5811 5811 5810 5809 5808 5808 5807 5806 5805 5804 5804 5803 5802 5802 5801 5800 5800 5799 5799 5798 5797 5796 5796 5795 5794 5793 5792 5792 5791 5791 5791 5790 5790 5790 5789 5788 5787 5786
5791 5793 5793 5795 5797 5798 5798 5799 5799 5800 5801 5801 5801 5802 5803 5805 5806 5806 5806 5804 5802 5805 5809 5811 5812 5812 5811 5811 5812 5813 5814 5814 5814 5815 5814 5814 5814 5814 5814 5813 5812 5812 5813 5813 5813 5813 5814 5814 5814 5814 5813 5812 5811 5810 5809 5808 5808 5807 5807 5807 5806 5805 5804 5803 5802 5801 5800 5799 5799 5798 5798 5797 5796 5796 5795 5794 5793 5792 5791 5791 5790 5789 5788 5787 5786 5785 5785 5784 5784 5784 5783 5783 5783 5783 5782 5781 5780
5791 5792 5793 5794 5795 5796 5796 5797 5797 5798 5800 5800 5800 5800 5801 5803 5804 5804 5803 5800 5800 5805 5808 5808 5808 5809 5808 5808 5808 5809 5809 5810 5811 5811 5812 5812 5812 5812 5811 5811 5810 5809 5809 5808 5808 5808 5808 5808 5809 5809 5808 5808 5806 5805 5804 5803 5802 5802 5802 5801 5800 5800 5798 5797 5796 5795 5794 5793 5792 5792 5792 5791 5790 5790 5789 5788 5787 5786 5786 5785 5784 5783 5782 5781 5780 5778 5777 5777 5777 5777 5776 5776 5776 5776 5776 5775 5774
5790 5791 5791 5792 5793 5794 5795 5795 5796 5797 5799 5799 5798 5797 5799 5800 5801 5801 5800 5798 5801 5804 5805 5805 5805 5805 5805 5805 5805 5805 5805 5805 5806 5807 5808 5808 5808 5808 5808 5807 5806 5805 5804 5804 5803 5803 5802 5802 5803 5803 5803 5802 5801 5801 5800 5797 5796 5797 5796 5795 5794 5793 5792 5791 5790 5789 5788 5787 5787 5786 5786 5785 5784 5784 5783 5782 5782 5781 5780 5779 5779 5778 5776 5775 5773 5772 5771 5771 5771 5771 5770 5770 5769 5769 5769 5768 5768
5789 5790 5790 5791 5792 5793 5793 5794 5795 5796 5797 5797 5796 5796 5797 5798 5799 5799 5797 5797 5801 5802 5801 5801 5801 5801 5801 5800 5800 5801 5800 5801 5801 5802 5803 5803 5803 5803 5802 5802 5801 5800 5800 5799 5798 5798 5797 5797 5797 5797 5797 5796 5796 5795 5794 5792 5791 5791 5790 5789 5788 5787 5786 5785 5784 5784 5783 5782 5781 5780 5779 5779 5778 5777 5776 5776 5775 5775 5774 5773 5773 5772 5771 5769 5767 5766 5766 5765 5765 5765 5764 5764 5763 5763 5762 5761 5761
5789 5789 5790 5790 5790 5791 5792 5793 5794 5794 5794 5794 5794 5794 5795 5796 5797 5796 5795 5797 5799 5798 5797 5797 5797 5797 5797 5797 5797 5797 5797 5797 5797 5798 5798 5798 5798 5798 5797 5797 5796 5796 5796 5795 5794 5793 5793 5792 5792 5792 5791 5791 5790 5789 5788 5787 5785 5784 5784 5783 5782 5781 5780 5779 5778 5778 5776 5776 5775 5774 5773 5772 5771 5770 5770 5769 5768 5768 5767 5767 5766 5765 5764 5762 5760 5759 5759 5759 5759 5759 5758 5757 5756 5756 5755 5754 5754
5788 5788 5789 5789 5790 5790 5791 5791 5792 5792 5791 5792 5792 5793 5793 5794 5794 5792 5792 5795 5796 5794 5793 5792 5792 5793 5793 5794 5794 5795 5795 5795 5795 5795 5795 5794 5794 5793 5793 5792 5792 5791 5791 5791 5790 5789 5788 5787 5786 5786 5785 5784 5784 5783 5782 5781 5780 5778 5777 5777 5775 5775 5774 5773 5772 5771 5770 5769 5768 5767 5766 5765 5764 5763 5763 5762 5761 5760 5759 5759 5759 5758 5756 5755 5753 5752 5752 5752 5752 5752 5751 5750 5749 5748 5748 5747 5747
5787 5787 5787 5788 5789 5789 5790 5790 5790 5790 5790 5790 5790 5791 5791 5791 5791 5790 5790 5792 5791 5789 5789 5789 5789 5790 5790 5791 5792 5792 5793 5792 5792 5792 5791 5790 5789 5789 5788 5788 5787 5786 5786 5785 5784 5783 5782 5781 5780 5780 5779 5778 5777 5777 5776 5775 5773 5772 5771 5770 5769 5768 5767 5766 5765 5764 5762 5762 5761 5760 5759 5758 5757 5756 5755 5754 5753 5752 5751 5751 5750 5749 5748 5747 5745 5744 5744 5744 5744 5744 5742 5741 5741 5740 5739 5739 5739
5786 5786 5787 5787 5787 5788 5788 5788 5788 5788 5788 5788 5788 5789 5788 5789 5788 5786 5787 5788 5786 5785 5785 5786 5787 5787 5788 5789 5789 5789 5789 5788 5788 5787 5787 5786 5785 5785 5784 5783 5783 5782 5781 5780 5779 5778 5777 5775 5774 5774 5773 5772 5771 5770 5769 5768 5766 5765 5764 5763 5762 5761 5760 5758 5757 5756 5754 5753 5753 5752 5751 5750 5749 5748 5747 5746 5745 5744 5743 5742 5741 5741 5740 5738 5737 5736 5736 5736 5736 5735 5733 5732 5733 5732 5731 5730 5730
5784 5785 5785 5786 5786 5786 5786 5786 5786 5786 5786 5785 5786 5786 5786 5787 5785 5783 5784 5783 5782 5783 5784 5784 5785 5785 5786 5786 5786 5785 5785 5784 5784 5783 5782 5782 5781 5781 5780 5779 5778 5778 5777 5775 5774 5773 5772 5770 5769 5768 5766 5765 5765 5764 5762 5761 5760 5758 5757 5756 5755 5753 5752 5751 5749 5748 5746 5745 5744 5743 5742 5741 5740 5739 5738 5737 5736 5735 5734 5733 5732 5732 5731 5729 5728 5727 5727 5727 5727 5727 5725 5723 5722 5723 5722 5721 5722
5783 5782 5782 5783 5783 5783 5783 5784 5784 5784 5784 5783 5784 5784 5784 5783 5780 5779 5781 5780 5780 5781 5782 5783 5783 5783 5783 5782 5782 5781 5781 5780 5779 5779 5778 5777 5777 5777 5776 5775 5774 5773 5772 5771 5769 5768 5767 5765 5764 5762 5761 5759 5758 5757 5756 5755 5753 5752 5750 5749 5748 5746 5745 5744 5742 5740 5739 5737 5736 5734 5733 5732 5730 5729 5728 5727 5726 5725 5724 5723 5723 5722 5721 5720 5719 5718 5717 5717 5717 5717 5717 5715 5712 5712 5712 5711 5712
5781 5780 5780 5780 5780 5781 5781 5782 5782 5782 5782 5781 5782 5781 5781 5778 5775 5775 5776 5776 5778 5779 5779 5780 5780 5779 5779 5778 5778 5777 5777 5776 5775 5774 5774 5773 5773 5772 5771 5770 5769 5768 5766 5765 5763 5762 5761 5759 5758 5757 5755 5754 5752 5751 5750 5748 5746 5745 5743 5742 5740 5739 5737 5736 5734 5733 5731 5730 5728 5726 5725 5723 5721 5720 5719 5718 5717 5715 5714 5713 5713 5712 5711 5710 5709 5708 5707 5707 5707 5706 5707 5706 5703 5701 5701 5701 5702
5778 5778 5778 5778 5778 5778 5779 5780 5780 5780 5780 5780 5780 5778 5775 5772 5771 5772 5773 5774 5776 5776 5776 5776 5775 5775 5775 5774 5774 5773 5773 5772 5771 5770 5769 5768 5768 5767 5765 5764 5763 5761 5760 5759 5757 5755 5754 5753 5752 5750 5749 5747 5746 5744 5743 5741 5739 5737 5736 5734 5732 5730 5729 5728 5726 5725 5723 5721 5720 5718 5717 5715 5713 5712 5710 5709 5708 5706 5705 5703 5702 5702 5701 5700 5699 5698 5697 5696 5696 5696 5696 5696 5694 5692 5689 5689 5691
5775 5775 5775 5775 5775 5775 5776 5777 5777 5777 5777 5777 5777 5774 5771 5769 5768 5769 5770 5771 5771 5770 5771 5771 5770 5770 5770 5770 5769 5768 5768 5767 5766 5765 5764 5763 5761 5760 5759 5758 5757 5755 5754 5752 5751 5749 5747 5746 5745 5743 5742 5740 5739 5737 5735 5734 5732 5730 5728 5726 5724 5722 5721 5719 5717 5716 5714 5713 5711 5709 5707 5706 5704 5702 5701 5700 5698 5697 5695 5694 5693 5691 5690 5689 5688 5687 5686 5686 5685 5685 5685 5684 5684 5682 5679 5677 5677
5772 5772 5772 5772 5772 5771 5772 5773 5773 5773 5773 5773 5772 5770 5769 5767 5766 5767 5768 5767 5766 5766 5766 5766 5766 5765 5765 5765 5764 5763 5762 5761 5760 5759 5758 5757 5755 5754 5753 5751 5750 5748 5747 5746 5744 5743 5741 5739 5737 5736 5734 5733 5731 5729 5727 5726 5724 5722 5720 5718 5716 5714 5713 5711 5709 5707 5706 5704 5702 5700 5698 5696 5695 5693 5691 5690 5688 5687 5686 5684 5683 5681 5680 5679 5677 5676 5675 5675 5674 5674 5674 5674 5672 5671 5670 5667 5665
5768 5769 5769 5768 5768 5768 5768 5769 5769 5769 5768 5768 5767 5767 5766 5765 5764 5765 5765 5764 5763 5763 5763 5762 5761 5760 5760 5760 5759 5758 5757 5756 5755 5753 5752 5751 5749 5748 5746 5745 5743 5742 5740 5739 5737 5736 5734 5732 5730 5728 5727 5725 5723 5721 5720 5718 5716 5715 5713 5710 5709 5707 5705 5703 5701 5700 5698 5696 5694 5692 5690 5688 5686 5684 5682 5680 5679 5677 5676 5674 5673 5671 5670 5669 5667 5665 5664 5663 5662 5662 5661 5662 5661 5660 5659 5657 5654
5765 5765 5765 5765 5764 5764 5764 5764 5764 5764 5764 5763 5762 5763 5763 5762 5761 5761 5760 5760 5759 5759 5759 5758 5757 5756 5755 5754 5754 5753 5752 5750 5749 5747 5746 5744 5743 5742 5740 5739 5737 5735 5733 5732 5730 5728 5727 5725 5723 5721 5719 5717 5716 5714 5712 5710 5709 5707 5705 5703 5701 5700 5698 5696 5694 5692 5690 5688 5686 5685 5683 5681 5679 5677 5675 5673 5670 5669 5667 5666 5664 5663 5661 5659 5658 5656 5655 5653 5652 5651 5650 5649 5649 5649 5648 5646 5643
5763 5763 5762 5761 5760 5760 5760 5760 5760 5759 5759 5758 5757 5758 5758 5758 5757 5756 5756 5756 5755 5754 5754 5753 5753 5752 5750 5750 5749 5747 5746 5744 5743 5741 5740 5738 5737 5736 5734 5732 5731 5729 5727 5725 5723 5721 5719 5718 5716 5714 5712 5710 5709 5707 5705 5703 5701 5700 5698 5696 5693 5691 5690 5688 5686 5684 5682 5680 5677 5676 5674 5672 5670 5668 5666 5664 5662 5660 5658 5657 5655 5653 5652 5650 5648 5647 5646 5644 5642 5641 5641 5639 5638 5637 5638 5637 5634
5759 5759 5759 5758 5756 5756 5756 5756 5755 5755 5755 5754 5753 5752 5753 5753 5753 5752 5752 5751 5751 5750 5749 5749 5748 5747 5746 5744 5743 5741 5740 5738 5736 5735 5734 5733 5731 5730 5728 5726 5724 5722 5720 5718 5716 5714 5712 5711 5709 5707 5706 5704 5702 5700 5698 5696 5694 5693 5691 5689 5686 5684 5682 5680 5677 5675 5673 5671 5669 5667 5665 5663 5661 5659 5657 5655 5653 5651 5648 5647 5645 5643 5642 5640 5638 5637 5635 5634 5632 5631 5630 5629 5628 5626 5627 5628 5626
5755 5755 5755 5754 5753 5752 5751 5751 5750 5750 5750 5750 5749 5748 5747 5747 5747 5748 5748 5747 5746 5746 5745 5745 5743 5742 5741 5739 5737 5736 5734 5732 5730 5729 5728 5726 5725 5723 5722 5720 5718 5716 5714 5711 5709 5707 5706 5704 5702 5701 5699 5697 5695 5693 5690 5688 5687 5685 5683 5681 5679 5677 5674 5672 5670 5667 5665 5663 5661 5658 5656 5654 5652 5650 5648 5645 5643 5641 5639 5637 5636 5634 5632 5630 5628 5626 5625 5623 5621 5620 5618 5617 5616 5615 5614 5615 5615
5751 5751 5750 5750 5749 5748 5747 5746 5745 5745 5745 5744 5745 5745 5742 5741 5742 5743 5742 5741 5741 5741 5741 5740 5738 5737 5735 5733 5732 5730 5728 5726 5724 5723 5722 5720 5719 5717 5715 5713 5711 5709 5708 5706 5703 5701 5699 5698 5696 5694 5692 5690 5688 5685 5683 5681 5678 5676 5674 5672 5670 5668 5666 5663 5661 5659 5657 5654 5652 5650 5647 5645 5643 5640 5638 5636 5634 5632 5629 5627 5625 5623 5621 5619 5618 5616 5614 5613 5611 5609 5607 5605 5604 5603 5602 5602 5602
5748 5747 5746 5746 5745 5744 5743 5742 5741 5740 5739 5739 5741 5739 5736 5736 5738 5737 5736 5736 5735 5735 5735 5734 5732 5730 5729 5727 5726 5724 5723 5720 5719 5717 5716 5715 5713 5711 5708 5707 5705 5703 5702 5700 5698 5695 5693 5691 5688 5686 5684 5682 5680 5677 5675 5673 5671 5668 5666 5664 5661 5659 5656 5654 5652 5650 5647 5645 5643 5640 5638 5635 5633 5630 5628 5626 5623 5621 5619 5616 5614 5612 5610 5608 5606 5604 5602 5601 5599 5597 5596 5594 5592 5591 5589 5589 5589
5744 5743 5742 5741 5740 5740 5739 5738 5737 5735 5734 5736 5736 5733 5730 5731 5732 5731 5730 5730 5729 5728 5727 5726 5725 5724 5722 5721 5719 5718 5717 5715 5713 5712 5710 5709 5706 5704 5702 5701 5699 5697 5695 5693 5691 5688 5686 5683 5681 5679 5676 5674 5671 5669 5667 5665 5662 5660 5657 5655 5652 5649 5647 5645 5642 5640 5637 5635 5632 5629 5627 5624 5622 5619 5616 5614 5612 5609 5607 5604 5602 5600 5598 5596 5593 5592 5590 5588 5586 5585 5583 5581 5579 5578 5577 5575 5575
5739 5739 5738 5737 5736 5735 5734 5733 5732 5730 5731 5733 5731 5728 5726 5725 5726 5726 5725 5725 5724 5722 5721 5720 5719 5718 5716 5715 5714 5713 5711 5710 5708 5706 5704 5702 5700 5698 5696 5694 5693 5690 5688 5686 5683 5681 5678 5676 5673 5671 5668 5665 5663 5660 5658 5655 5653 5650 5647 5644 5642 5639 5637 5634 5631 5629 5626 5623 5620 5617 5614 5611 5609 5606 5603 5601 5598 5596 5593 5591 5589 5587 5585 5583 5580 5579 5577 5575 5573 5571 5570 5568 5566 5565 5564 5562 5561
5735 5734 5734 5733 5731 5731 5730 5728 5728 5726 5727 5728 5725 5724 5722 5720 5721 5722 5720 5720 5719 5717 5715 5714 5713 5712 5711 5710 5708 5707 5705 5703 5701 5698 5696 5694 5693 5691 5689 5687 5685 5683 5680 5678 5675 5673 5670 5667 5665 5662 5659 5656 5653 5651 5648 5645 5642 5639 5636 5633 5630 5627 5625 5622 5619 5616 5614 5611 5608 5605 5602 5599 5596 5593 5590 5587 5584 5582 5579 5577 5574 5572 5570 5568 5566 5564 5563 5561 5559 5558 5556 5555 5553 5552 5551 5549 5548
5730 5730 5729 5728 5727 5726 5725 5724 5723 5722 5722 5722 5720 5719 5717 5715 5717 5717 5715 5715 5713 5711 5710 5709 5708 5707 5705 5703 5702 5700 5698 5695 5692 5690 5688 5687 5685 5684 5681 5679 5677 5675 5672 5669 5666 5664 5661 5658 5655 5652 5649 5646 5643 5640 5637 5634 5630 5627 5624 5621 5618 5615 5612 5609 5606 5603 5600 5597 5594 5591 5589 5586 5583 5580 5577 5574 5571 5568 5565 5563 5560 5558 5555 5553 5551 5549 5547 5546 5544 5543 5541 5540 5539 5538 5537 5536 5534
5726 5725 5724 5723 5722 5721 5720 5719 5718 5717 5717 5716 5714 5713 5711 5711 5712 5711 5710 5709 5707 5706 5704 5703 5702 5700 5698 5696 5693 5691 5689 5686 5684 5682 5681 5679 5678 5676 5673 5671 5669 5666 5664 5661 5658 5655 5652 5649 5646 5643 5639 5636 5632 5629 5625 5622 5619 5616 5612 5609 5605 5602 5598 5595 5592 5589 5585 5582 5579 5577 5574 5571 5568 5565 5562 5559 5556 5554 5550 5548 5546 5543 5541 5539 5537 5535 5532 5531 5529 5528 5526 5525 5524 5523 5521 5521 5520
5721 5720 5719 5718 5718 5716 5715 5714 5713 5712 5712 5710 5709 5707 5706 5706 5706 5705 5703 5702 5701 5700 5698 5696 5694 5692 5690 5688 5685 5683 5681 5679 5678 5676 5674 5672 5670 5668 5665 5663 5660 5658 5655 5653 5649 5646 5643 5639 5636 5632 5629 5625 5622 5618 5614 5610 5607 5603 5600 5596 5592 5589 5585 5582 5578 5575 5571 5568 5564 5561 5558 5555 5552 5549 5546 5543 5540 5538 5535 5532 5530 5528 5526 5523 5521 5520 5517 5515 5514 5512 5511 5509 5508 5507 5506 5505 5504
5716 5715 5714 5713 5713 5711 5710 5709 5708 5707 5705 5705 5704 5703 5702 5702 5701 5700 5698 5696 5695 5693 5691 5688 5687 5685 5683 5680 5678 5676 5675 5673 5672 5670 5668 5665 5663 5660 5658 5655 5652 5649 5647 5644 5640 5637 5633 5629 5626 5622 5619 5615 5611 5608 5604 5600 5596 5592 5588 5584 5580 5576 5572 5569 5565 5561 5557 5554 5550 5546 5542 5539 5536 5532 5529 5526 5523 5521 5518 5516 5513 5511 5509 5507 5506 5504 5501 5499 5498 5496 5495 5494 5492 5491 5490 5489 5488
5712 5711 5710 5709 5707 5706 5704 5703 5703 5701 5699 5699 5699 5697 5697 5696 5695 5694 5693 5691 5689 5686 5684 5683 5681 5679 5677 5675 5673 5671 5669 5668 5666 5664 5661 5659 5656 5653 5650 5647 5644 5641 5638 5635 5631 5628 5624 5620 5616 5613 5609 5605 5602 5598 5594 5589 5585 5581 5577 5573 5568 5564 5559 5555 5551 5547 5543 5539 5535 5531 5527 5523 5520 5517 5513 5510 5506 5503 5500 5498 5496 5493 5490 5489 5487 5486 5484 5482 5481 5479 5478 5477 5475 5474 5472 5471 5470
5707 5706 5705 5704 5702 5701 5699 5698 5697 5695 5694 5694 5694 5693 5692 5691 5690 5690 5688 5685 5684 5681 5680 5678 5676 5675 5672 5670 5668 5666 5664 5662 5660 5658 5655 5652 5649 5646 5643 5640 5637 5634 5630 5626 5623 5619 5615 5611 5607 5603 5599 5595 5591 5587 5583 5578 5574 5570 5565 5561 5556 5552 5547 5542 5538 5533 5529 5525 5520 5516 5512 5508 5504 5501 5497 5494 5490 5486 5483 5479 5477 5474 5471 5468 5466 5465 5463 5461 5460 5459 5458 5457 5456 5455 5454 5452 5451
5703 5701 5700 5699 5697 5695 5694 5692 5691 5690 5688 5688 5688 5687 5687 5686 5686 5685 5683 5681 5679 5677 5675 5673 5671 5670 5667 5665 5663 5660 5658 5656 5654 5651 5648 5645 5642 5639 5636 5633 5629 5625 5621 5618 5614 5610 5606 5601 5597 5593 5589 5585 5581 5576 5572 5567 5563 5558 5553 5549 5544 5539 5534 5529 5525 5520 5516 5511 5506 5502 5497 5493 5489 5485 5482 5478 5474 5470 5466 5462 5459 5456 5453 5450 5447 5445 5443 5441 5439 5438 5436 5435 5435 5434 5433 5432 5431
5697 5696 5695 5694 5692 5690 5689 5687 5686 5685 5683 5682 5681 5681 5683 5682 5680 5680 5678 5677 5674 5671 5669 5667 5665 5663 5661 5659 5657 5654 5652 5650 5647 5645 5641 5638 5635 5632 5628 5625 5621 5617 5613 5609 5604 5600 5596 5591 5587 5582 5578 5573 5569 5564 5560 5555 5550 5545 5540 5536 5531 5526 5521 5516 5512 5507 5502 5497 5493 5488 5484 5479 5474 5470 5467 5463 5458 5455 5451 5447 5443 5440 5437 5433 5430 5427 5424 5422 5420 5418 5417 5416 5415 5414 5413 5412 5412
5692 5690 5689 5688 5686 5685 5683 5682 5681 5679 5677 5676 5675 5676 5678 5676 5674 5674 5673 5670 5667 5665 5664 5661 5658 5657 5655 5653 5650 5647 5645 5643 5641 5638 5634 5631 5627 5624 5620 5616 5612 5608 5603 5599 5595 5590 5586 5581 5577 5572 5567 5562 5557 5552 5548 5543 5538 5533 5528 5523 5518 5513 5508 5503 5498 5493 5488 5484 5479 5474 5470 5465 5460 5456 5452 5448 5444 5439 5435 5432 5428 5424 5420 5418 5414 5411 5408 5405 5403 5401 5400 5398 5397 5396 5395 5394 5394
5686 5684 5683 5682 5680 5679 5678 5676 5676 5674 5672 5670 5668 5669 5673 5671 5668 5668 5666 5663 5660 5659 5657 5655 5652 5651 5649 5646 5643 5640 5638 5636 5633 5629 5626 5623 5619 5615 5611 5607 5603 5599 5594 5589 5585 5580 5576 5571 5566 5562 5557 5552 5547 5541 5537 5532 5526 5521 5516 5510 5505 5500 5495 5490 5485 5480 5475 5470 5465 5460 5455 5451 5446 5441 5436 5433 5429 5425 5420 5416 5412 5409 5405 5402 5399 5396 5393 5390 5388 5386 5384 5382 5381 5381 5380 5378 5377